Information on these data can be found in provided Readme document
Contact Info: Zachary Fasnacht (zachary.fasnacht@ssaihq.com); Nickolay Krotkov (nickolay.a.krotkov@nasa.gov); Lok Lamsal (lok.lamsal@nasa.gov)

FillValue: -999.
ScaleFactor: 1e15
Units: molecules/cm^2

Date(yyyy-mm-dd),City,Country,LonCenter,LatCenter,BoundingCoordinates,Median,Q1,Q3,Mean,Baseline_Median,Baseline_Q1,Baseline_Q3,Baseline_Mean,NumGoodSamples,NumTotalSamples
2015-01-01,Yangoon,Myanmar,96.0001,16.8333,[95.5001 16.3333 96.5001 17.3333],0.804,0.351,1.265,0.847,0.879,0.473,1.302,0.919,224.0,531.0
2015-01-02,Yangoon,Myanmar,96.0001,16.8333,[95.5001 16.3333 96.5001 17.3333],0.795,0.32,1.249,0.819,0.891,0.471,1.332,0.914,233.0,511.0
2015-01-03,Yangoon,Myanmar,96.0001,16.8333,[95.5001 16.3333 96.5001 17.3333],0.787,0.298,1.304,0.814,0.885,0.45,1.319,0.907,212.0,526.0
2015-01-04,Yangoon,Myanmar,96.0001,16.8333,[95.5001 16.3333 96.5001 17.3333],0.869,0.32,1.38,0.863,0.886,0.42,1.335,0.91,237.0,506.0
2015-01-05,Yangoon,Myanmar,96.0001,16.8333,[95.5001 16.3333 96.5001 17.3333],0.925,0.32,1.391,0.892,0.886,0.426,1.306,0.899,217.0,537.0
2015-01-06,Yangoon,Myanmar,96.0001,16.8333,[95.5001 16.3333 96.5001 17.3333],0.889,0.329,1.387,0.871,0.884,0.4,1.316,0.885,201.0,516.0
2015-01-07,Yangoon,Myanmar,96.0001,16.8333,[95.5001 16.3333 96.5001 17.3333],0.924,0.335,1.387,0.884,0.906,0.379,1.349,0.907,223.0,527.0
2015-01-08,Yangoon,Myanmar,96.0001,16.8333,[95.5001 16.3333 96.5001 17.3333],0.894,0.335,1.38,0.868,0.929,0.39,1.403,0.92,199.0,526.0
2015-01-09,Yangoon,Myanmar,96.0001,16.8333,[95.5001 16.3333 96.5001 17.3333],0.889,0.335,1.387,0.893,0.914,0.388,1.408,0.927,222.0,517.0
2015-01-10,Yangoon,Myanmar,96.0001,16.8333,[95.5001 16.3333 96.5001 17.3333],0.901,0.34,1.387,0.898,0.925,0.395,1.413,0.93,202.0,495.0
2015-01-11,Yangoon,Myanmar,96.0001,16.8333,[95.5001 16.3333 96.5001 17.3333],0.962,0.367,1.474,0.918,0.939,0.395,1.428,0.935,212.0,465.0
2015-01-12,Yangoon,Myanmar,96.0001,16.8333,[95.5001 16.3333 96.5001 17.3333],0.964,0.34,1.524,0.952,0.944,0.373,1.414,0.943,181.0,484.0
2015-01-13,Yangoon,Myanmar,96.0001,16.8333,[95.5001 16.3333 96.5001 17.3333],0.901,0.307,1.503,0.906,0.931,0.368,1.415,0.936,177.0,468.0
2015-01-14,Yangoon,Myanmar,96.0001,16.8333,[95.5001 16.3333 96.5001 17.3333],0.87,0.297,1.503,0.892,0.935,0.375,1.447,0.937,171.0,495.0
2015-01-15,Yangoon,Myanmar,96.0001,16.8333,[95.5001 16.3333 96.5001 17.3333],0.87,0.34,1.38,0.858,0.923,0.369,1.422,0.935,162.0,480.0
2015-01-16,Yangoon,Myanmar,96.0001,16.8333,[95.5001 16.3333 96.5001 17.3333],0.894,0.381,1.443,0.908,0.949,0.406,1.457,0.959,188.0,482.0
2015-01-17,Yangoon,Myanmar,96.0001,16.8333,[95.5001 16.3333 96.5001 17.3333],0.941,0.413,1.503,0.953,0.946,0.417,1.466,0.969,179.0,482.0
2015-01-18,Yangoon,Myanmar,96.0001,16.8333,[95.5001 16.3333 96.5001 17.3333],0.975,0.426,1.503,1.024,0.977,0.443,1.486,0.998,199.0,465.0
2015-01-19,Yangoon,Myanmar,96.0001,16.8333,[95.5001 16.3333 96.5001 17.3333],0.894,0.413,1.464,0.988,0.962,0.46,1.476,0.995,174.0,480.0
2015-01-20,Yangoon,Myanmar,96.0001,16.8333,[95.5001 16.3333 96.5001 17.3333],0.941,0.423,1.524,0.991,1.01,0.46,1.539,1.028,198.0,460.0
2015-01-21,Yangoon,Myanmar,96.0001,16.8333,[95.5001 16.3333 96.5001 17.3333],0.975,0.446,1.604,1.028,1.036,0.496,1.527,1.044,182.0,492.0
2015-01-22,Yangoon,Myanmar,96.0001,16.8333,[95.5001 16.3333 96.5001 17.3333],0.95,0.437,1.479,0.987,1.036,0.487,1.526,1.033,169.0,471.0
2015-01-23,Yangoon,Myanmar,96.0001,16.8333,[95.5001 16.3333 96.5001 17.3333],0.927,0.406,1.479,0.976,1.031,0.466,1.531,1.025,202.0,484.0
2015-01-24,Yangoon,Myanmar,96.0001,16.8333,[95.5001 16.3333 96.5001 17.3333],0.93,0.406,1.422,0.959,1.002,0.476,1.479,1.011,188.0,484.0
2015-01-25,Yangoon,Myanmar,96.0001,16.8333,[95.5001 16.3333 96.5001 17.3333],0.953,0.41,1.505,1.006,1.013,0.492,1.484,1.022,210.0,517.0
2015-01-26,Yangoon,Myanmar,96.0001,16.8333,[95.5001 16.3333 96.5001 17.3333],0.95,0.401,1.426,0.991,1.02,0.5,1.488,1.044,200.0,534.0
2015-01-27,Yangoon,Myanmar,96.0001,16.8333,[95.5001 16.3333 96.5001 17.3333],0.927,0.401,1.399,0.978,1.015,0.529,1.491,1.053,211.0,506.0
2015-01-28,Yangoon,Myanmar,96.0001,16.8333,[95.5001 16.3333 96.5001 17.3333],0.95,0.406,1.479,1.008,1.018,0.513,1.495,1.051,198.0,525.0
2015-01-29,Yangoon,Myanmar,96.0001,16.8333,[95.5001 16.3333 96.5001 17.3333],0.95,0.588,1.481,1.036,1.019,0.55,1.5,1.058,215.0,510.0
2015-01-30,Yangoon,Myanmar,96.0001,16.8333,[95.5001 16.3333 96.5001 17.3333],0.953,0.618,1.604,1.072,1.013,0.539,1.527,1.049,210.0,539.0
2015-01-31,Yangoon,Myanmar,96.0001,16.8333,[95.5001 16.3333 96.5001 17.3333],0.953,0.62,1.578,1.066,0.973,0.506,1.513,1.042,202.0,525.0
2015-02-01,Yangoon,Myanmar,96.0001,16.8333,[95.5001 16.3333 96.5001 17.3333],1.021,0.618,1.604,1.092,1.002,0.538,1.548,1.06,228.0,535.0
2015-02-02,Yangoon,Myanmar,96.0001,16.8333,[95.5001 16.3333 96.5001 17.3333],0.95,0.592,1.578,1.047,1.006,0.517,1.551,1.05,208.0,537.0
2015-02-03,Yangoon,Myanmar,96.0001,16.8333,[95.5001 16.3333 96.5001 17.3333],0.95,0.592,1.578,1.045,1.014,0.563,1.574,1.074,211.0,518.0
2015-02-04,Yangoon,Myanmar,96.0001,16.8333,[95.5001 16.3333 96.5001 17.3333],0.849,0.562,1.565,1.051,0.986,0.541,1.574,1.082,187.0,533.0
2015-02-05,Yangoon,Myanmar,96.0001,16.8333,[95.5001 16.3333 96.5001 17.3333],0.871,0.562,1.533,1.041,0.998,0.576,1.635,1.115,191.0,512.0
2015-02-06,Yangoon,Myanmar,96.0001,16.8333,[95.5001 16.3333 96.5001 17.3333],1.003,0.62,1.619,1.108,1.03,0.585,1.643,1.134,172.0,544.0
2015-02-07,Yangoon,Myanmar,96.0001,16.8333,[95.5001 16.3333 96.5001 17.3333],1.052,0.702,1.619,1.166,1.035,0.604,1.647,1.148,157.0,523.0
2015-02-08,Yangoon,Myanmar,96.0001,16.8333,[95.5001 16.3333 96.5001 17.3333],1.064,0.702,1.641,1.208,1.052,0.626,1.723,1.198,180.0,536.0
2015-02-09,Yangoon,Myanmar,96.0001,16.8333,[95.5001 16.3333 96.5001 17.3333],1.044,0.702,1.607,1.181,1.065,0.614,1.682,1.183,167.0,533.0
2015-02-10,Yangoon,Myanmar,96.0001,16.8333,[95.5001 16.3333 96.5001 17.3333],1.099,0.741,1.642,1.241,1.061,0.642,1.679,1.188,192.0,525.0
2015-02-11,Yangoon,Myanmar,96.0001,16.8333,[95.5001 16.3333 96.5001 17.3333],1.158,0.746,1.658,1.277,1.095,0.64,1.701,1.215,181.0,502.0
2015-02-12,Yangoon,Myanmar,96.0001,16.8333,[95.5001 16.3333 96.5001 17.3333],1.18,0.744,1.742,1.308,1.115,0.664,1.76,1.264,197.0,472.0
2015-02-13,Yangoon,Myanmar,96.0001,16.8333,[95.5001 16.3333 96.5001 17.3333],1.298,0.817,1.96,1.404,1.174,0.691,1.819,1.299,166.0,491.0
2015-02-14,Yangoon,Myanmar,96.0001,16.8333,[95.5001 16.3333 96.5001 17.3333],1.214,0.737,1.919,1.357,1.204,0.697,1.843,1.331,182.0,475.0
2015-02-15,Yangoon,Myanmar,96.0001,16.8333,[95.5001 16.3333 96.5001 17.3333],1.189,0.688,1.919,1.323,1.211,0.696,1.82,1.326,181.0,503.0
2015-02-16,Yangoon,Myanmar,96.0001,16.8333,[95.5001 16.3333 96.5001 17.3333],1.171,0.695,1.873,1.292,1.198,0.706,1.833,1.324,175.0,486.0
2015-02-17,Yangoon,Myanmar,96.0001,16.8333,[95.5001 16.3333 96.5001 17.3333],1.205,0.723,1.925,1.347,1.23,0.672,1.85,1.327,204.0,490.0
2015-02-18,Yangoon,Myanmar,96.0001,16.8333,[95.5001 16.3333 96.5001 17.3333],1.205,0.723,1.927,1.351,1.252,0.676,1.844,1.333,201.0,492.0
2015-02-19,Yangoon,Myanmar,96.0001,16.8333,[95.5001 16.3333 96.5001 17.3333],1.188,0.73,1.925,1.365,1.217,0.63,1.801,1.29,223.0,472.0
2015-02-20,Yangoon,Myanmar,96.0001,16.8333,[95.5001 16.3333 96.5001 17.3333],1.205,0.73,1.96,1.386,1.209,0.636,1.79,1.296,219.0,487.0
2015-02-21,Yangoon,Myanmar,96.0001,16.8333,[95.5001 16.3333 96.5001 17.3333],1.162,0.739,1.925,1.347,1.241,0.631,1.808,1.306,242.0,466.0
2015-02-22,Yangoon,Myanmar,96.0001,16.8333,[95.5001 16.3333 96.5001 17.3333],1.171,0.71,1.927,1.344,1.224,0.623,1.784,1.307,224.0,496.0
2015-02-23,Yangoon,Myanmar,96.0001,16.8333,[95.5001 16.3333 96.5001 17.3333],1.07,0.695,1.873,1.276,1.215,0.628,1.791,1.293,210.0,475.0
2015-02-24,Yangoon,Myanmar,96.0001,16.8333,[95.5001 16.3333 96.5001 17.3333],1.092,0.695,1.873,1.304,1.242,0.668,1.847,1.33,233.0,486.0
2015-02-25,Yangoon,Myanmar,96.0001,16.8333,[95.5001 16.3333 96.5001 17.3333],1.052,0.674,1.786,1.252,1.217,0.654,1.812,1.32,225.0,482.0
2015-02-26,Yangoon,Myanmar,96.0001,16.8333,[95.5001 16.3333 96.5001 17.3333],1.07,0.681,1.79,1.262,1.22,0.682,1.804,1.304,247.0,515.0
2015-02-27,Yangoon,Myanmar,96.0001,16.8333,[95.5001 16.3333 96.5001 17.3333],1.052,0.696,1.786,1.239,1.21,0.661,1.804,1.281,252.0,534.0
2015-02-28,Yangoon,Myanmar,96.0001,16.8333,[95.5001 16.3333 96.5001 17.3333],1.052,0.666,1.674,1.212,1.195,0.655,1.79,1.258,272.0,504.0
2015-03-01,Yangoon,Myanmar,96.0001,16.8333,[95.5001 16.3333 96.5001 17.3333],1.033,0.695,1.647,1.215,1.216,0.653,1.8,1.266,241.0,523.0
2015-03-02,Yangoon,Myanmar,96.0001,16.8333,[95.5001 16.3333 96.5001 17.3333],1.142,0.753,1.74,1.288,1.255,0.681,1.829,1.283,254.0,508.0
2015-03-03,Yangoon,Myanmar,96.0001,16.8333,[95.5001 16.3333 96.5001 17.3333],1.142,0.772,1.783,1.31,1.277,0.687,1.866,1.307,271.0,537.0
2015-03-04,Yangoon,Myanmar,96.0001,16.8333,[95.5001 16.3333 96.5001 17.3333],1.121,0.739,1.74,1.258,1.279,0.702,1.873,1.321,262.0,523.0
2015-03-05,Yangoon,Myanmar,96.0001,16.8333,[95.5001 16.3333 96.5001 17.3333],1.111,0.71,1.74,1.228,1.281,0.71,1.867,1.321,290.0,529.0
2015-03-06,Yangoon,Myanmar,96.0001,16.8333,[95.5001 16.3333 96.5001 17.3333],1.102,0.624,1.737,1.188,1.319,0.768,1.955,1.376,295.0,533.0
2015-03-07,Yangoon,Myanmar,96.0001,16.8333,[95.5001 16.3333 96.5001 17.3333],1.121,0.623,1.74,1.205,1.301,0.77,1.914,1.369,316.0,514.0
2015-03-08,Yangoon,Myanmar,96.0001,16.8333,[95.5001 16.3333 96.5001 17.3333],1.137,0.602,1.747,1.221,1.311,0.771,1.939,1.386,293.0,529.0
2015-03-09,Yangoon,Myanmar,96.0001,16.8333,[95.5001 16.3333 96.5001 17.3333],1.165,0.624,1.79,1.247,1.328,0.79,1.945,1.401,315.0,509.0
2015-03-10,Yangoon,Myanmar,96.0001,16.8333,[95.5001 16.3333 96.5001 17.3333],1.2,0.624,1.802,1.279,1.278,0.745,1.908,1.376,297.0,538.0
2015-03-11,Yangoon,Myanmar,96.0001,16.8333,[95.5001 16.3333 96.5001 17.3333],1.137,0.61,1.771,1.194,1.275,0.73,1.912,1.355,283.0,519.0
2015-03-12,Yangoon,Myanmar,96.0001,16.8333,[95.5001 16.3333 96.5001 17.3333],1.142,0.61,1.792,1.226,1.282,0.727,1.889,1.353,297.0,535.0
2015-03-13,Yangoon,Myanmar,96.0001,16.8333,[95.5001 16.3333 96.5001 17.3333],1.142,0.602,1.771,1.216,1.274,0.721,1.884,1.361,294.0,532.0
2015-03-14,Yangoon,Myanmar,96.0001,16.8333,[95.5001 16.3333 96.5001 17.3333],1.137,0.578,1.762,1.206,1.323,0.772,1.926,1.385,296.0,525.0
2015-03-15,Yangoon,Myanmar,96.0001,16.8333,[95.5001 16.3333 96.5001 17.3333],1.165,0.602,1.771,1.231,1.36,0.771,1.945,1.411,276.0,504.0
2015-03-16,Yangoon,Myanmar,96.0001,16.8333,[95.5001 16.3333 96.5001 17.3333],1.18,0.669,1.762,1.229,1.357,0.808,1.964,1.433,295.0,474.0
2015-03-17,Yangoon,Myanmar,96.0001,16.8333,[95.5001 16.3333 96.5001 17.3333],1.161,0.578,1.737,1.184,1.382,0.821,2.024,1.462,265.0,493.0
2015-03-18,Yangoon,Myanmar,96.0001,16.8333,[95.5001 16.3333 96.5001 17.3333],1.175,0.59,1.737,1.178,1.406,0.842,2.047,1.482,232.0,477.0
2015-03-19,Yangoon,Myanmar,96.0001,16.8333,[95.5001 16.3333 96.5001 17.3333],1.175,0.632,1.762,1.186,1.384,0.833,2.075,1.47,233.0,505.0
2015-03-20,Yangoon,Myanmar,96.0001,16.8333,[95.5001 16.3333 96.5001 17.3333],1.2,0.696,1.794,1.263,1.391,0.828,2.073,1.479,221.0,489.0
2015-03-21,Yangoon,Myanmar,96.0001,16.8333,[95.5001 16.3333 96.5001 17.3333],1.211,0.714,1.824,1.311,1.359,0.816,2.016,1.457,212.0,496.0
2015-03-22,Yangoon,Myanmar,96.0001,16.8333,[95.5001 16.3333 96.5001 17.3333],1.256,0.803,1.919,1.437,1.36,0.842,2.027,1.474,218.0,502.0
2015-03-23,Yangoon,Myanmar,96.0001,16.8333,[95.5001 16.3333 96.5001 17.3333],1.263,0.815,1.963,1.518,1.405,0.856,2.032,1.499,237.0,481.0
2015-03-24,Yangoon,Myanmar,96.0001,16.8333,[95.5001 16.3333 96.5001 17.3333],1.261,0.824,2.001,1.524,1.396,0.836,2.027,1.489,215.0,495.0
2015-03-25,Yangoon,Myanmar,96.0001,16.8333,[95.5001 16.3333 96.5001 17.3333],1.182,0.675,1.908,1.384,1.385,0.805,2.042,1.477,239.0,475.0
2015-03-26,Yangoon,Myanmar,96.0001,16.8333,[95.5001 16.3333 96.5001 17.3333],1.242,0.798,1.991,1.494,1.342,0.795,2.019,1.45,221.0,507.0
2015-03-27,Yangoon,Myanmar,96.0001,16.8333,[95.5001 16.3333 96.5001 17.3333],1.204,0.798,1.858,1.406,1.325,0.771,2.026,1.434,209.0,484.0
2015-03-28,Yangoon,Myanmar,96.0001,16.8333,[95.5001 16.3333 96.5001 17.3333],1.204,0.753,1.858,1.417,1.285,0.718,1.989,1.398,223.0,498.0
2015-03-29,Yangoon,Myanmar,96.0001,16.8333,[95.5001 16.3333 96.5001 17.3333],1.194,0.738,1.858,1.41,1.2,0.685,1.959,1.348,217.0,495.0
2015-03-30,Yangoon,Myanmar,96.0001,16.8333,[95.5001 16.3333 96.5001 17.3333],1.182,0.707,1.824,1.376,1.148,0.641,1.828,1.297,243.0,526.0
2015-03-31,Yangoon,Myanmar,96.0001,16.8333,[95.5001 16.3333 96.5001 17.3333],1.105,0.668,1.853,1.376,1.082,0.61,1.748,1.246,250.0,542.0
2015-04-01,Yangoon,Myanmar,96.0001,16.8333,[95.5001 16.3333 96.5001 17.3333],1.105,0.696,1.745,1.343,1.077,0.617,1.647,1.2,269.0,512.0
2015-04-02,Yangoon,Myanmar,96.0001,16.8333,[95.5001 16.3333 96.5001 17.3333],1.068,0.695,1.713,1.337,1.066,0.617,1.586,1.168,265.0,529.0
2015-04-03,Yangoon,Myanmar,96.0001,16.8333,[95.5001 16.3333 96.5001 17.3333],0.986,0.681,1.558,1.243,1.034,0.599,1.527,1.137,275.0,513.0
2015-04-04,Yangoon,Myanmar,96.0001,16.8333,[95.5001 16.3333 96.5001 17.3333],0.961,0.63,1.468,1.196,1.007,0.585,1.474,1.109,295.0,542.0
2015-04-05,Yangoon,Myanmar,96.0001,16.8333,[95.5001 16.3333 96.5001 17.3333],0.94,0.623,1.395,1.139,0.977,0.577,1.449,1.076,295.0,525.0
2015-04-06,Yangoon,Myanmar,96.0001,16.8333,[95.5001 16.3333 96.5001 17.3333],0.911,0.603,1.274,1.023,0.957,0.555,1.346,1.01,296.0,528.0
2015-04-07,Yangoon,Myanmar,96.0001,16.8333,[95.5001 16.3333 96.5001 17.3333],0.869,0.592,1.236,0.917,0.891,0.53,1.253,0.932,295.0,537.0
2015-04-08,Yangoon,Myanmar,96.0001,16.8333,[95.5001 16.3333 96.5001 17.3333],0.89,0.592,1.254,0.931,0.876,0.526,1.222,0.902,313.0,516.0
2015-04-09,Yangoon,Myanmar,96.0001,16.8333,[95.5001 16.3333 96.5001 17.3333],0.911,0.63,1.279,0.976,0.87,0.515,1.206,0.889,289.0,531.0
2015-04-10,Yangoon,Myanmar,96.0001,16.8333,[95.5001 16.3333 96.5001 17.3333],0.869,0.57,1.262,0.908,0.858,0.53,1.217,0.887,313.0,508.0
2015-04-11,Yangoon,Myanmar,96.0001,16.8333,[95.5001 16.3333 96.5001 17.3333],0.858,0.547,1.254,0.906,0.861,0.523,1.202,0.884,294.0,540.0
2015-04-12,Yangoon,Myanmar,96.0001,16.8333,[95.5001 16.3333 96.5001 17.3333],0.863,0.584,1.236,0.874,0.864,0.542,1.211,0.887,281.0,516.0
2015-04-13,Yangoon,Myanmar,96.0001,16.8333,[95.5001 16.3333 96.5001 17.3333],0.872,0.592,1.262,0.9,0.851,0.539,1.211,0.884,297.0,529.0
2015-04-14,Yangoon,Myanmar,96.0001,16.8333,[95.5001 16.3333 96.5001 17.3333],0.863,0.589,1.254,0.885,0.878,0.568,1.216,0.889,289.0,528.0
2015-04-15,Yangoon,Myanmar,96.0001,16.8333,[95.5001 16.3333 96.5001 17.3333],0.863,0.573,1.254,0.884,0.884,0.577,1.211,0.901,288.0,522.0
2015-04-16,Yangoon,Myanmar,96.0001,16.8333,[95.5001 16.3333 96.5001 17.3333],0.855,0.54,1.207,0.865,0.869,0.566,1.199,0.894,269.0,500.0
2015-04-17,Yangoon,Myanmar,96.0001,16.8333,[95.5001 16.3333 96.5001 17.3333],0.855,0.543,1.207,0.868,0.873,0.558,1.183,0.89,276.0,472.0
2015-04-18,Yangoon,Myanmar,96.0001,16.8333,[95.5001 16.3333 96.5001 17.3333],0.848,0.468,1.207,0.847,0.875,0.546,1.213,0.899,245.0,492.0
2015-04-19,Yangoon,Myanmar,96.0001,16.8333,[95.5001 16.3333 96.5001 17.3333],0.85,0.571,1.161,0.862,0.889,0.572,1.225,0.916,228.0,475.0
2015-04-20,Yangoon,Myanmar,96.0001,16.8333,[95.5001 16.3333 96.5001 17.3333],0.871,0.594,1.27,0.901,0.894,0.566,1.246,0.918,229.0,504.0
2015-04-21,Yangoon,Myanmar,96.0001,16.8333,[95.5001 16.3333 96.5001 17.3333],0.919,0.637,1.33,0.945,0.913,0.587,1.278,0.943,221.0,488.0
2015-04-22,Yangoon,Myanmar,96.0001,16.8333,[95.5001 16.3333 96.5001 17.3333],0.93,0.646,1.355,0.958,0.898,0.582,1.264,0.939,228.0,490.0
2015-04-23,Yangoon,Myanmar,96.0001,16.8333,[95.5001 16.3333 96.5001 17.3333],0.945,0.678,1.369,0.988,0.916,0.608,1.279,0.966,237.0,494.0
2015-04-24,Yangoon,Myanmar,96.0001,16.8333,[95.5001 16.3333 96.5001 17.3333],0.945,0.657,1.369,0.988,0.9,0.605,1.283,0.966,259.0,476.0
2015-04-25,Yangoon,Myanmar,96.0001,16.8333,[95.5001 16.3333 96.5001 17.3333],1.015,0.717,1.4,1.084,0.931,0.623,1.291,0.998,235.0,491.0
2015-04-26,Yangoon,Myanmar,96.0001,16.8333,[95.5001 16.3333 96.5001 17.3333],0.948,0.701,1.369,1.028,0.929,0.614,1.319,0.996,256.0,468.0
2015-04-27,Yangoon,Myanmar,96.0001,16.8333,[95.5001 16.3333 96.5001 17.3333],0.952,0.678,1.4,1.043,0.917,0.624,1.337,1.0,236.0,500.0
2015-04-28,Yangoon,Myanmar,96.0001,16.8333,[95.5001 16.3333 96.5001 17.3333],0.896,0.556,1.355,0.974,0.915,0.596,1.337,0.998,221.0,479.0
2015-04-29,Yangoon,Myanmar,96.0001,16.8333,[95.5001 16.3333 96.5001 17.3333],0.92,0.57,1.369,0.997,0.896,0.554,1.314,0.978,238.0,491.0
2015-04-30,Yangoon,Myanmar,96.0001,16.8333,[95.5001 16.3333 96.5001 17.3333],0.919,0.561,1.367,0.99,0.88,0.522,1.306,0.959,227.0,488.0
2015-05-01,Yangoon,Myanmar,96.0001,16.8333,[95.5001 16.3333 96.5001 17.3333],0.92,0.594,1.369,1.0,0.874,0.547,1.288,0.956,249.0,521.0
2015-05-02,Yangoon,Myanmar,96.0001,16.8333,[95.5001 16.3333 96.5001 17.3333],0.905,0.582,1.369,1.004,0.874,0.544,1.279,0.948,262.0,539.0
2015-05-03,Yangoon,Myanmar,96.0001,16.8333,[95.5001 16.3333 96.5001 17.3333],0.903,0.556,1.367,0.981,0.88,0.562,1.261,0.937,282.0,512.0
2015-05-04,Yangoon,Myanmar,96.0001,16.8333,[95.5001 16.3333 96.5001 17.3333],0.903,0.506,1.372,0.987,0.863,0.538,1.25,0.928,263.0,530.0
2015-05-05,Yangoon,Myanmar,96.0001,16.8333,[95.5001 16.3333 96.5001 17.3333],0.875,0.522,1.321,0.945,0.872,0.546,1.22,0.916,274.0,516.0
2015-05-06,Yangoon,Myanmar,96.0001,16.8333,[95.5001 16.3333 96.5001 17.3333],0.862,0.506,1.313,0.921,0.869,0.542,1.222,0.907,291.0,546.0
2015-05-07,Yangoon,Myanmar,96.0001,16.8333,[95.5001 16.3333 96.5001 17.3333],0.852,0.506,1.212,0.913,0.882,0.548,1.201,0.917,285.0,530.0
2015-05-08,Yangoon,Myanmar,96.0001,16.8333,[95.5001 16.3333 96.5001 17.3333],0.798,0.493,1.196,0.882,0.831,0.521,1.179,0.879,280.0,536.0
2015-05-09,Yangoon,Myanmar,96.0001,16.8333,[95.5001 16.3333 96.5001 17.3333],0.797,0.506,1.165,0.872,0.858,0.538,1.195,0.9,258.0,537.0
2015-05-10,Yangoon,Myanmar,96.0001,16.8333,[95.5001 16.3333 96.5001 17.3333],0.797,0.506,1.165,0.872,0.86,0.548,1.192,0.901,258.0,520.0
2015-05-11,Yangoon,Myanmar,96.0001,16.8333,[95.5001 16.3333 96.5001 17.3333],0.847,0.534,1.212,0.905,0.849,0.555,1.19,0.906,237.0,537.0
2015-05-12,Yangoon,Myanmar,96.0001,16.8333,[95.5001 16.3333 96.5001 17.3333],0.847,0.534,1.212,0.905,0.84,0.572,1.181,0.904,237.0,512.0
2015-05-13,Yangoon,Myanmar,96.0001,16.8333,[95.5001 16.3333 96.5001 17.3333],0.903,0.599,1.321,0.949,0.826,0.563,1.163,0.887,219.0,542.0
2015-05-14,Yangoon,Myanmar,96.0001,16.8333,[95.5001 16.3333 96.5001 17.3333],0.903,0.557,1.212,0.928,0.829,0.563,1.162,0.895,184.0,520.0
2015-05-15,Yangoon,Myanmar,96.0001,16.8333,[95.5001 16.3333 96.5001 17.3333],0.903,0.599,1.25,0.939,0.813,0.562,1.167,0.886,170.0,533.0
2015-05-16,Yangoon,Myanmar,96.0001,16.8333,[95.5001 16.3333 96.5001 17.3333],0.875,0.544,1.211,0.918,0.813,0.546,1.15,0.881,148.0,529.0
2015-05-17,Yangoon,Myanmar,96.0001,16.8333,[95.5001 16.3333 96.5001 17.3333],0.875,0.562,1.211,0.904,0.804,0.536,1.129,0.87,128.0,521.0
2015-05-18,Yangoon,Myanmar,96.0001,16.8333,[95.5001 16.3333 96.5001 17.3333],0.881,0.606,1.243,0.936,0.787,0.534,1.126,0.867,108.0,496.0
2015-05-19,Yangoon,Myanmar,96.0001,16.8333,[95.5001 16.3333 96.5001 17.3333],0.811,0.516,1.211,0.879,0.786,0.521,1.137,0.855,123.0,471.0
2015-05-20,Yangoon,Myanmar,96.0001,16.8333,[95.5001 16.3333 96.5001 17.3333],0.811,0.407,1.354,0.899,0.778,0.505,1.15,0.86,93.0,486.0
2015-05-21,Yangoon,Myanmar,96.0001,16.8333,[95.5001 16.3333 96.5001 17.3333],0.662,0.389,1.212,0.797,0.756,0.493,1.129,0.84,59.0,468.0
2015-05-22,Yangoon,Myanmar,96.0001,16.8333,[95.5001 16.3333 96.5001 17.3333],0.554,0.311,1.116,0.736,0.748,0.493,1.073,0.825,57.0,498.0
2015-05-23,Yangoon,Myanmar,96.0001,16.8333,[95.5001 16.3333 96.5001 17.3333],0.406,0.296,0.817,0.561,0.763,0.514,1.097,0.845,35.0,483.0
2015-05-24,Yangoon,Myanmar,96.0001,16.8333,[95.5001 16.3333 96.5001 17.3333],0.406,0.296,0.847,0.594,0.758,0.5,1.07,0.814,39.0,490.0
2015-05-25,Yangoon,Myanmar,96.0001,16.8333,[95.5001 16.3333 96.5001 17.3333],0.406,0.296,0.936,0.611,0.696,0.458,1.036,0.779,40.0,489.0
2015-05-26,Yangoon,Myanmar,96.0001,16.8333,[95.5001 16.3333 96.5001 17.3333],0.406,0.296,0.936,0.61,0.637,0.408,1.008,0.732,41.0,470.0
2015-05-27,Yangoon,Myanmar,96.0001,16.8333,[95.5001 16.3333 96.5001 17.3333],0.406,0.296,0.936,0.61,0.626,0.362,0.987,0.694,41.0,488.0
2015-05-28,Yangoon,Myanmar,96.0001,16.8333,[95.5001 16.3333 96.5001 17.3333],0.458,0.285,0.979,0.593,0.635,0.302,1.071,0.71,53.0,465.0
2015-05-29,Yangoon,Myanmar,96.0001,16.8333,[95.5001 16.3333 96.5001 17.3333],0.458,0.285,0.979,0.593,0.516,0.269,0.979,0.625,53.0,497.0
2015-05-30,Yangoon,Myanmar,96.0001,16.8333,[95.5001 16.3333 96.5001 17.3333],0.44,0.243,0.784,0.535,0.524,0.248,0.954,0.629,63.0,475.0
2015-05-31,Yangoon,Myanmar,96.0001,16.8333,[95.5001 16.3333 96.5001 17.3333],0.44,0.106,0.776,0.492,0.501,0.18,0.914,0.584,95.0,488.0
2015-06-01,Yangoon,Myanmar,96.0001,16.8333,[95.5001 16.3333 96.5001 17.3333],0.44,0.106,0.776,0.492,0.475,0.182,0.887,0.551,95.0,485.0
2015-06-02,Yangoon,Myanmar,96.0001,16.8333,[95.5001 16.3333 96.5001 17.3333],0.458,0.243,0.778,0.502,0.475,0.189,0.852,0.545,107.0,518.0
2015-06-03,Yangoon,Myanmar,96.0001,16.8333,[95.5001 16.3333 96.5001 17.3333],0.499,0.1,0.816,0.51,0.456,0.106,0.755,0.51,101.0,533.0
2015-06-04,Yangoon,Myanmar,96.0001,16.8333,[95.5001 16.3333 96.5001 17.3333],0.499,0.1,0.816,0.51,0.435,0.046,0.715,0.466,101.0,504.0
2015-06-05,Yangoon,Myanmar,96.0001,16.8333,[95.5001 16.3333 96.5001 17.3333],0.527,0.09,0.821,0.517,0.431,0.036,0.696,0.452,98.0,524.0
2015-06-06,Yangoon,Myanmar,96.0001,16.8333,[95.5001 16.3333 96.5001 17.3333],0.483,0.09,0.821,0.487,0.417,0.031,0.699,0.443,85.0,509.0
2015-06-07,Yangoon,Myanmar,96.0001,16.8333,[95.5001 16.3333 96.5001 17.3333],0.499,0.09,0.821,0.521,0.416,0.032,0.673,0.447,100.0,539.0
2015-06-08,Yangoon,Myanmar,96.0001,16.8333,[95.5001 16.3333 96.5001 17.3333],0.478,0.082,0.789,0.505,0.419,0.022,0.692,0.451,96.0,523.0
2015-06-09,Yangoon,Myanmar,96.0001,16.8333,[95.5001 16.3333 96.5001 17.3333],0.499,0.082,0.821,0.579,0.428,0.023,0.719,0.478,103.0,530.0
2015-06-10,Yangoon,Myanmar,96.0001,16.8333,[95.5001 16.3333 96.5001 17.3333],0.499,0.082,0.821,0.58,0.445,0.022,0.738,0.485,102.0,533.0
2015-06-11,Yangoon,Myanmar,96.0001,16.8333,[95.5001 16.3333 96.5001 17.3333],0.527,0.082,0.821,0.58,0.46,0.096,0.719,0.492,103.0,515.0
2015-06-12,Yangoon,Myanmar,96.0001,16.8333,[95.5001 16.3333 96.5001 17.3333],0.537,0.09,0.817,0.586,0.447,0.07,0.678,0.47,91.0,531.0
2015-06-13,Yangoon,Myanmar,96.0001,16.8333,[95.5001 16.3333 96.5001 17.3333],0.596,0.1,0.821,0.595,0.502,0.03,0.759,0.511,94.0,511.0
2015-06-14,Yangoon,Myanmar,96.0001,16.8333,[95.5001 16.3333 96.5001 17.3333],0.623,0.216,0.918,0.663,0.517,0.046,0.777,0.494,84.0,543.0
2015-06-15,Yangoon,Myanmar,96.0001,16.8333,[95.5001 16.3333 96.5001 17.3333],0.734,0.288,0.957,0.823,0.504,0.036,0.727,0.469,52.0,521.0
2015-06-16,Yangoon,Myanmar,96.0001,16.8333,[95.5001 16.3333 96.5001 17.3333],0.682,0.264,0.957,0.738,0.471,0.063,0.73,0.484,67.0,534.0
2015-06-17,Yangoon,Myanmar,96.0001,16.8333,[95.5001 16.3333 96.5001 17.3333],0.701,0.148,1.213,0.821,0.485,0.019,0.759,0.474,55.0,531.0
2015-06-18,Yangoon,Myanmar,96.0001,16.8333,[95.5001 16.3333 96.5001 17.3333],0.701,0.148,1.225,0.874,0.435,0.005,0.707,0.453,46.0,523.0
2015-06-19,Yangoon,Myanmar,96.0001,16.8333,[95.5001 16.3333 96.5001 17.3333],0.701,0.148,1.225,0.874,0.43,-0.003,0.708,0.448,46.0,502.0
2015-06-20,Yangoon,Myanmar,96.0001,16.8333,[95.5001 16.3333 96.5001 17.3333],0.701,0.148,1.225,0.874,0.461,0.036,0.735,0.482,46.0,473.0
2015-06-21,Yangoon,Myanmar,96.0001,16.8333,[95.5001 16.3333 96.5001 17.3333],0.623,0.148,1.365,0.915,0.443,0.023,0.746,0.477,42.0,488.0
2015-06-22,Yangoon,Myanmar,96.0001,16.8333,[95.5001 16.3333 96.5001 17.3333],0.623,0.148,1.321,0.919,0.405,0.003,0.681,0.424,27.0,470.0